SCP
0 0 -0 0 0 0 -0 -0 -0 -0 -0 -0 -0 -0 0 0 0 0 0 0 0 0 0 0 0 0 0 0 0 0 0 0
-0 -0 0 0 0 -0 -0 -0 -0 -0 -0 0 -0 0 0 0 0 0 0 0 0 0 0 0 0 0 0 0 0 0 0 0
-0 0 0 -0 0 0 -0 -0 -0 -0 -0 -0 0 -0 0 0 0 0 0 0 0 0 0 0 0 0 0 0 0 0 0 -0
-0 -0 0 0 -0 -0 -0 0 0 0 -0 -0 -0 -0 0 0 0 0 0 0 0 0 0 0 0 0 0 0 -0 -0 0 -0
0 -0 -0 0 -0 -0 0 -0 -0 -0 -0 -0 -0 -0 0 0 0 0 0 0 0 0 0 0 0 0 0 0 0 0 0 0
-0 0 -0 0 0 0 -0 -0 -0 -0 -0 0 0 0 0 0 0 0 0 0 0 0 0 0 0 0 0 0 0 0 0 0
-0 -0 -0 0 -0 -0 0 0 0 0 0 0 0 0 0 0 0 0 0 0 0 0 0 0 0 0 0 0 0 0 0 0
-0 -0 -0 -0 -0 -0 0 0 0 0 0 0 0 0 0 0 0 0 0 0 0 0 0 0 0 0 0 0 0 0 0 0
-0 -0 -0 -0 -0 -0 0 0 0 0 0 0 0 0 0 0 0 0 0 0 0 0 0 0 0 0 0 0 0 0 0 0
-0 -0 -0 -0 0 0 0 0 0 0 0 0 0 0 0 0 0 0 0 0 0 0 0 0 0 0 0 0 0 0 0 0
-0 -0 0 0 0 0 0 0 0 0 0 -0 0 0 0 0 0 0 0 0 0 0 0 0 0 0 0 0 0 0 0 0
-0 0 0 0 0 0 0 0 0 0 0 0 0 0 0 0 0 0 0 0 0 0 0 0 0 0 0 0 0 0 0 0
-0 0 0 0 0 0 0 0 0 0 0 0 0 0 0 0 0 0 0 0 0 0 0 0 0 0 0 0 -0 0 0 0
0 0 0 0 0 0 0 0 0 0 0 0 0 0 0 0 0 0 0 0 0 0 0 0 0 0 0 0 0 0 0 0
0 0 0 0 0 0 0 0 0 0 0 0 0 0 0 0 0 0 0 0 0 0 0 0 0 0 0 0 0 0 0 0
0 0 0 0 0 0 0 0 0 0 0 0 0 0 0 0 0 0 0 0 0 0 0 0 0 0 0 0 0 0 0 0
0 0 0 0 0 0 0 0 0 0 0 0 0 0 0 0 0 0 0 0 0 0 0 0 0 0 0 0 0 0 0 0
0 0 0 0 0 0 0 0 0 0 0 0 0 0 0 0 0 0 0 0 0 0 0 0 0 0 0 0 0 0 0 0
0 0 0 0 0 0 0 0 0 0 0 0 0 0 0 0 0 0 0 0 0 0 0 0 0 0 0 0 0 0 0 0
0 0 0 0 0 0 0 0 0 0 0 0 0 0 0 0 0 0 0 0 0 0 0 0 0 0 0 0 0 0 0 0
Wind_Speed_500mb
52 58 37 37 36 34 34 34 34 34 35 34 35 35 34 30 28 26 23 22 22 22 22 22 26 27 29 31 31 23 26 33
53 43 39 40 36 31 34 35 36 37 37 37 33 30 26 21 18 17 15 17 17 16 16 14 19 21 28 31 36 21 15 24
48 34 33 35 38 36 36 38 41 41 38 33 27 26 23 20 12 10 11 14 18 20 15 12 17 28 33 37 37 34 20 23
43 34 34 36 36 36 38 39 41 40 35 27 19 16 10 11 13 13 17 18 15 18 8 12 23 30 37 38 39 40 42 32
43 37 32 35 40 44 45 44 42 32 28 29 16 10 7 7 11 14 15 13 11 4 4 13 20 20 22 26 27 33 42 34
52 39 36 41 43 44 42 36 35 26 22 21 20 19 17 14 17 14 12 13 10 12 13 16 23 25 19 27 32 40 38 34
57 47 42 39 46 43 36 37 29 24 26 31 26 24 24 21 14 13 17 17 18 14 20 26 28 28 33 37 39 35 37 33
55 52 41 46 37 44 47 44 30 27 30 26 23 23 21 18 19 25 24 22 15 24 25 28 26 32 39 40 28 30 36 39
59 52 56 46 50 47 38 27 33 31 15 10 17 24 27 24 20 18 20 19 26 26 28 29 33 40 36 24 22 34 39 29
56 64 57 49 51 48 40 40 33 23 13 6 13 23 25 17 18 15 14 23 27 32 31 32 37 37 40 34 37 39 39 26
57 66 55 51 46 44 44 42 27 18 21 12 15 22 18 14 10 11 15 23 27 28 32 39 44 46 47 48 46 36 28 30
55 56 46 40 40 49 50 38 24 20 20 14 16 17 13 9 11 13 17 20 22 26 36 44 47 51 50 47 48 42 12 25
56 54 49 54 52 57 46 30 25 23 15 20 18 14 13 13 16 16 16 15 21 27 34 40 48 49 52 56 63 21 43 18
59 55 46 53 44 39 33 31 23 20 22 21 18 15 17 15 17 22 26 28 31 35 35 41 40 41 47 57 34 54 15 38
58 44 38 44 39 28 30 23 28 29 25 17 19 20 15 15 19 25 27 31 33 36 37 36 36 42 51 41 29 17 61 42
44 37 37 33 42 43 35 33 32 22 12 20 22 18 12 16 21 23 26 29 32 33 31 37 44 47 45 42 42 48 57 57
43 38 29 47 43 47 33 27 26 28 31 27 20 12 6 4 12 20 25 29 35 39 44 46 35 39 46 47 52 54 52 54
42 39 40 46 48 45 32 37 45 38 42 34 22 17 20 20 24 27 32 37 43 50 45 42 44 45 48 55 57 54 51 47
56 51 50 44 57 44 45 44 43 41 37 36 33 31 28 31 41 42 46 52 49 43 41 42 42 42 40 48 49 50 46 40
49 50 49 61 60 53 50 46 43 43 43 40 38 38 42 37 47 49 49 43 43 44 43 41 39 41 38 42 49 52 39 43
Wind_Direction_500mb
126 124 144 152 141 134 128 129 126 125 121 116 114 110 108 106 102 95 91 82 72 62 54 45 43 30 31 24 25 39 29 11
113 146 147 145 141 137 135 133 130 125 119 107 102 102 100 95 99 95 86 81 67 47 50 38 41 26 14 8 3 16 14 358
148 154 160 151 144 139 137 134 130 121 117 118 115 110 101 82 90 82 68 60 62 56 44 17 8 0 1 351 357 1 7 337
155 165 163 154 141 138 137 133 128 128 124 125 112 107 96 69 68 85 75 64 73 57 26 345 334 358 358 353 355 352 349 356
151 156 161 155 147 141 136 135 133 140 134 132 132 136 117 138 88 69 71 77 77 109 313 334 351 2 6 353 339 335 335 339
157 151 138 145 147 141 140 143 141 147 150 151 171 171 178 145 125 121 147 167 191 257 269 298 308 327 323 322 325 326 327 333
153 155 153 144 143 146 148 159 154 171 180 187 178 179 168 167 164 194 209 225 248 272 276 292 313 322 323 324 327 324 321 336
170 169 160 157 170 175 168 170 177 189 195 193 189 195 198 209 227 232 234 249 256 294 294 311 319 321 325 331 338 315 322 329
171 161 163 171 170 173 183 183 190 197 200 213 220 224 222 251 247 230 241 257 292 298 305 309 311 317 327 346 323 314 326 326
162 162 170 180 183 189 187 189 187 198 199 269 239 225 223 221 227 235 256 283 290 299 307 309 322 329 332 329 322 325 332 335
160 170 180 187 194 196 195 197 201 241 303 291 201 198 204 201 231 266 278 288 292 302 310 317 326 331 330 330 332 337 337 326
176 183 185 188 197 193 200 211 232 267 286 256 192 188 195 227 254 278 284 282 284 298 314 321 323 326 324 328 332 339 348 328
191 189 198 190 195 195 208 229 253 252 225 188 183 198 212 235 266 292 308 286 299 306 310 313 321 321 326 328 332 327 337 290
190 194 196 192 199 208 224 237 226 199 192 201 210 209 210 211 241 265 280 288 297 307 311 313 317 322 324 325 329 326 358 315
195 200 209 206 202 191 216 201 184 197 192 217 205 215 237 275 284 291 295 303 310 314 316 318 313 310 312 314 321 298 316 317
205 209 215 208 183 198 213 203 198 209 208 218 210 227 275 292 303 310 308 310 307 309 310 306 306 306 305 298 291 294 304 312
222 219 219 187 185 201 206 204 209 212 207 214 207 246 303 316 259 260 263 277 284 293 297 301 297 302 301 298 301 300 298 297
219 221 204 183 183 203 211 204 208 190 191 192 197 195 203 234 248 247 264 274 283 290 291 290 293 297 301 299 300 299 300 297
225 209 190 193 190 192 199 204 200 206 203 194 184 195 221 246 265 264 273 282 289 294 296 295 293 294 301 295 284 294 298 288
189 198 198 193 200 200 201 207 200 199 202 209 220 231 246 274 259 269 280 290 295 295 298 299 297 294 292 285 295 297 287 278
Wind_Speed_850mb
52 58 37 37 36 34 34 34 34 34 35 34 35 35 34 30 28 26 23 22 22 22 22 22 26 27 29 31 31 23 26 33
53 43 39 40 36 31 34 35 36 37 37 37 33 30 26 21 18 17 15 17 17 16 16 14 19 21 28 31 36 21 15 24
48 34 33 35 38 36 36 38 41 41 38 33 27 26 23 20 12 10 11 14 18 20 15 12 17 28 33 37 37 34 20 23
43 34 34 36 36 36 38 39 41 40 35 27 19 16 10 11 13 13 17 18 15 18 8 12 23 30 37 38 39 40 42 32
43 37 32 35 40 44 45 44 42 32 28 29 16 10 7 7 11 14 15 13 11 4 4 13 20 20 22 26 27 33 42 34
52 39 36 41 43 44 42 36 35 26 22 21 20 19 17 14 17 14 12 13 10 12 13 16 23 25 19 27 32 40 38 34
57 47 42 39 46 43 36 37 29 24 26 31 26 24 24 21 14 13 17 17 18 14 20 26 28 28 33 37 39 35 37 33
55 52 41 46 37 44 47 44 30 27 30 26 23 23 21 18 19 25 24 22 15 24 25 28 26 32 39 40 28 30 36 39
59 52 56 46 50 47 38 27 33 31 15 10 17 24 27 24 20 18 20 19 26 26 28 29 33 40 36 24 22 34 39 29
56 64 57 49 51 48 40 40 33 23 13 6 13 23 25 17 18 15 14 23 27 32 31 32 37 37 40 34 37 39 39 26
57 66 55 51 46 44 44 42 27 18 21 12 15 22 18 14 10 11 15 23 27 28 32 39 44 46 47 48 46 36 28 30
55 56 46 40 40 49 50 38 24 20 20 14 16 17 13 9 11 13 17 20 22 26 36 44 47 51 50 47 48 42 12 25
56 54 49 54 52 57 46 30 25 23 15 20 18 14 13 13 16 16 16 15 21 27 34 40 48 49 52 56 63 21 43 18
59 55 46 53 44 39 33 31 23 20 22 21 18 15 17 15 17 22 26 28 31 35 35 41 40 41 47 57 34 54 15 38
58 44 38 44 39 28 30 23 28 29 25 17 19 20 15 15 19 25 27 31 33 36 37 36 36 42 51 41 29 17 61 42
44 37 37 33 42 43 35 33 32 22 12 20 22 18 12 16 21 23 26 29 32 33 31 37 44 47 45 42 42 48 57 57
43 38 29 47 43 47 33 27 26 28 31 27 20 12 6 4 12 20 25 29 35 39 44 46 35 39 46 47 52 54 52 54
42 39 40 46 48 45 32 37 45 38 42 34 22 17 20 20 24 27 32 37 43 50 45 42 44 45 48 55 57 54 51 47
56 51 50 44 57 44 45 44 43 41 37 36 33 31 28 31 41 42 46 52 49 43 41 42 42 42 40 48 49 50 46 40
49 50 49 61 60 53 50 46 43 43 43 40 38 38 42 37 47 49 49 43 43 44 43 41 39 41 38 42 49 52 39 43
Wind_Direction_850mb
126 124 144 152 141 134 128 129 126 125 121 116 114 110 108 106 102 95 91 82 72 62 54 45 43 30 31 24 25 39 29 11
113 146 147 145 141 137 135 133 130 125 119 107 102 102 100 95 99 95 86 81 67 47 50 38 41 26 14 8 3 16 14 358
148 154 160 151 144 139 137 134 130 121 117 118 115 110 101 82 90 82 68 60 62 56 44 17 8 0 1 351 357 1 7 337
155 165 163 154 141 138 137 133 128 128 124 125 112 107 96 69 68 85 75 64 73 57 26 345 334 358 358 353 355 352 349 356
151 156 161 155 147 141 136 135 133 140 134 132 132 136 117 138 88 69 71 77 77 109 313 334 351 2 6 353 339 335 335 339
157 151 138 145 147 141 140 143 141 147 150 151 171 171 178 145 125 121 147 167 191 257 269 298 308 327 323 322 325 326 327 333
153 155 153 144 143 146 148 159 154 171 180 187 178 179 168 167 164 194 209 225 248 272 276 292 313 322 323 324 327 324 321 336
170 169 160 157 170 175 168 170 177 189 195 193 189 195 198 209 227 232 234 249 256 294 294 311 319 321 325 331 338 315 322 329
171 161 163 171 170 173 183 183 190 197 200 213 220 224 222 251 247 230 241 257 292 298 305 309 311 317 327 346 323 314 326 326
162 162 170 180 183 189 187 189 187 198 199 269 239 225 223 221 227 235 256 283 290 299 307 309 322 329 332 329 322 325 332 335
160 170 180 187 194 196 195 197 201 241 303 291 201 198 204 201 231 266 278 288 292 302 310 317 326 331 330 330 332 337 337 326
176 183 185 188 197 193 200 211 232 267 286 256 192 188 195 227 254 278 284 282 284 298 314 321 323 326 324 328 332 339 348 328
191 189 198 190 195 195 208 229 253 252 225 188 183 198 212 235 266 292 308 286 299 306 310 313 321 321 326 328 332 327 337 290
190 194 196 192 199 208 224 237 226 199 192 201 210 209 210 211 241 265 280 288 297 307 311 313 317 322 324 325 329 326 358 315
195 200 209 206 202 191 216 201 184 197 192 217 205 215 237 275 284 291 295 303 310 314 316 318 313 310 312 314 321 298 316 317
205 209 215 208 183 198 213 203 198 209 208 218 210 227 275 292 303 310 308 310 307 309 310 306 306 306 305 298 291 294 304 312
222 219 219 187 185 201 206 204 209 212 207 214 207 246 303 316 259 260 263 277 284 293 297 301 297 302 301 298 301 300 298 297
219 221 204 183 183 203 211 204 208 190 191 192 197 195 203 234 248 247 264 274 283 290 291 290 293 297 301 299 300 299 300 297
225 209 190 193 190 192 199 204 200 206 203 194 184 195 221 246 265 264 273 282 289 294 296 295 293 294 301 295 284 294 298 288
189 198 198 193 200 200 201 207 200 199 202 209 220 231 246 274 259 269 280 290 295 295 298 299 297 294 292 285 295 297 287 278